Time,TemperatureF,DewpointF,PressureIn,WindDirection,WindDirectionDegrees,WindSpeedMPH,WindSpeedGustMPH,Humidity,HourlyPrecipIn,Conditions,Clouds,dailyrainin,SoftwareType,DateUTC
2013-02-15 00:00:00,29.2,23.5,29.94,SSW,199,0.0,1.0,79,0.00,,,0.00,WeatherCatV1.00B22,2013-02-15 05:00:00,
2013-02-15 00:05:00,29.1,23.4,29.94,SSW,199,0.0,1.0,79,0.00,,,0.00,WeatherCatV1.00B22,2013-02-15 05:05:00,
2013-02-15 00:10:00,29.1,23.4,29.94,SSW,199,0.0,1.0,79,0.00,,,0.00,WeatherCatV1.00B22,2013-02-15 05:10:00,
2013-02-15 00:15:00,29.1,23.4,29.94,SSW,199,0.0,0.0,79,0.00,,,0.00,WeatherCatV1.00B22,2013-02-15 05:15:00,
2013-02-15 00:20:00,29.1,23.7,29.94,SSW,199,1.0,2.0,80,0.00,,,0.00,WeatherCatV1.00B22,2013-02-15 05:20:00,
2013-02-15 00:25:00,29.2,23.8,29.94,SSW,199,0.0,1.0,80,0.00,,,0.00,WeatherCatV1.00B22,2013-02-15 05:25:00,
2013-02-15 00:30:00,29.0,23.6,29.94,SSW,199,2.0,2.0,80,0.00,,,0.00,WeatherCatV1.00B22,2013-02-15 05:30:00,
2013-02-15 00:35:00,29.4,24.0,29.94,SSW,199,0.0,0.0,80,0.00,,,0.00,WeatherCatV1.00B22,2013-02-15 05:35:00,
2013-02-15 00:40:00,29.6,24.2,29.94,SSW,199,0.0,0.0,80,0.00,,,0.00,WeatherCatV1.00B22,2013-02-15 05:40:00,
2013-02-15 00:45:00,29.9,24.5,29.94,SSW,199,0.0,0.0,80,0.00,,,0.00,WeatherCatV1.00B22,2013-02-15 05:45:00,
2013-02-15 00:50:00,30.2,24.5,29.94,SSW,199,0.0,1.0,79,0.00,,,0.00,WeatherCatV1.00B22,2013-02-15 05:50:00,
2013-02-15 00:55:00,30.4,24.7,29.94,SSW,199,0.0,1.0,79,0.00,,,0.00,WeatherCatV1.00B22,2013-02-15 05:55:00,
2013-02-15 01:00:00,30.6,24.9,29.94,SSW,199,2.0,2.0,79,0.00,,,0.00,WeatherCatV1.00B22,2013-02-15 06:00:00,
2013-02-15 01:05:00,30.8,25.4,29.94,SSW,199,0.0,0.0,80,0.00,,,0.00,WeatherCatV1.00B22,2013-02-15 06:05:00,
2013-02-15 01:10:00,30.8,25.1,29.94,SSW,199,0.0,0.0,79,0.00,,,0.00,WeatherCatV1.00B22,2013-02-15 06:10:00,
2013-02-15 01:15:00,30.8,25.1,29.94,SSW,199,0.0,0.0,79,0.00,,,0.00,WeatherCatV1.00B22,2013-02-15 06:15:00,
2013-02-15 01:20:00,31.0,25.3,29.94,SSW,199,1.0,1.0,79,0.00,,,0.00,WeatherCatV1.00B22,2013-02-15 06:20:00,
2013-02-15 01:25:00,31.3,25.9,29.94,SSW,199,0.0,1.0,80,0.00,,,0.00,WeatherCatV1.00B22,2013-02-15 06:25:00,
2013-02-15 01:30:00,31.5,25.8,29.94,SSW,199,0.0,1.0,79,0.00,,,0.00,WeatherCatV1.00B22,2013-02-15 06:30:00,
2013-02-15 01:35:00,31.7,26.2,29.94,SSW,199,2.0,2.0,80,0.00,,,0.00,WeatherCatV1.00B22,2013-02-15 06:35:00,
2013-02-15 01:40:00,31.8,26.6,29.94,SSW,199,0.0,2.0,81,0.00,,,0.00,WeatherCatV1.00B22,2013-02-15 06:40:00,
2013-02-15 01:45:00,31.7,26.8,29.94,SSW,199,0.0,0.0,82,0.00,,,0.00,WeatherCatV1.00B22,2013-02-15 06:45:00,
2013-02-15 01:50:00,31.7,26.8,29.94,SSW,199,0.0,0.0,82,0.00,,,0.00,WeatherCatV1.00B22,2013-02-15 06:50:00,
2013-02-15 01:55:00,31.7,27.1,29.94,SSW,199,0.0,0.0,83,0.00,,,0.00,WeatherCatV1.00B22,2013-02-15 06:55:00,
2013-02-15 02:00:00,31.6,27.0,29.94,SSW,199,2.0,3.0,83,0.00,,,0.00,WeatherCatV1.00B22,2013-02-15 07:00:00,
2013-02-15 02:05:00,31.6,27.0,29.93,SSW,199,0.0,0.0,83,0.00,,,0.00,WeatherCatV1.00B22,2013-02-15 07:05:00,
2013-02-15 02:10:00,31.7,27.4,29.93,ESE,123,0.0,1.0,84,0.00,,,0.00,WeatherCatV1.00B22,2013-02-15 07:10:00,
2013-02-15 02:15:00,32.1,28.4,29.93,ESE,109,4.0,6.0,86,0.00,,,0.00,WeatherCatV1.00B22,2013-02-15 07:15:00,
2013-02-15 02:20:00,32.6,28.9,29.93,ESE,103,1.0,6.0,86,0.00,,,0.00,WeatherCatV1.00B22,2013-02-15 07:20:00,
2013-02-15 02:25:00,32.8,29.1,29.92,ESE,111,4.0,5.0,86,0.00,,,0.00,WeatherCatV1.00B22,2013-02-15 07:25:00,
2013-02-15 02:30:00,32.9,29.5,29.92,ESE,123,0.0,1.0,87,0.00,,,0.00,WeatherCatV1.00B22,2013-02-15 07:30:00,
2013-02-15 02:35:00,32.9,29.5,29.92,SE,125,0.0,0.0,87,0.00,,,0.00,WeatherCatV1.00B22,2013-02-15 07:35:00,
2013-02-15 02:40:00,32.9,29.5,29.92,SE,125,0.0,1.0,87,0.00,,,0.00,WeatherCatV1.00B22,2013-02-15 07:40:00,
2013-02-15 02:45:00,33.0,29.8,29.92,SE,125,0.0,0.0,88,0.00,,,0.00,WeatherCatV1.00B22,2013-02-15 07:45:00,
2013-02-15 02:50:00,33.0,29.8,29.92,SE,125,2.0,2.0,88,0.00,,,0.00,WeatherCatV1.00B22,2013-02-15 07:50:00,
2013-02-15 02:55:00,33.0,30.1,29.92,SSE,167,4.0,4.0,89,0.00,,,0.00,WeatherCatV1.00B22,2013-02-15 07:55:00,
2013-02-15 03:00:00,33.0,30.1,29.91,SSE,155,1.0,2.0,89,0.00,,,0.00,WeatherCatV1.00B22,2013-02-15 08:00:00,
2013-02-15 03:05:00,33.0,30.4,29.91,SSE,155,1.0,2.0,90,0.00,,,0.00,WeatherCatV1.00B22,2013-02-15 08:05:00,
2013-02-15 03:10:00,33.2,30.6,29.91,SSE,165,1.0,2.0,90,0.00,,,0.00,WeatherCatV1.00B22,2013-02-15 08:10:00,
2013-02-15 03:15:00,33.5,30.9,29.91,SSE,148,2.0,8.0,90,0.00,,,0.00,WeatherCatV1.00B22,2013-02-15 08:15:00,
2013-02-15 03:20:00,33.9,31.0,29.91,ESE,102,1.0,11.0,89,0.00,,,0.00,WeatherCatV1.00B22,2013-02-15 08:20:00,
2013-02-15 03:25:00,34.4,30.9,29.92,SSW,205,0.0,4.0,87,0.00,,,0.00,WeatherCatV1.00B22,2013-02-15 08:25:00,
2013-02-15 03:30:00,34.6,31.1,29.92,ESE,123,0.0,1.0,87,0.00,,,0.00,WeatherCatV1.00B22,2013-02-15 08:30:00,
2013-02-15 03:35:00,34.7,30.9,29.91,East,85,1.0,4.0,86,0.00,,,0.00,WeatherCatV1.00B22,2013-02-15 08:35:00,
2013-02-15 03:40:00,34.6,30.9,29.91,East,85,1.0,3.0,86,0.00,,,0.00,WeatherCatV1.00B22,2013-02-15 08:40:00,
2013-02-15 03:45:00,34.6,30.9,29.91,ESE,123,0.0,0.0,86,0.00,,,0.00,WeatherCatV1.00B22,2013-02-15 08:45:00,
2013-02-15 03:50:00,34.6,30.6,29.91,ESE,104,1.0,4.0,85,0.00,,,0.00,WeatherCatV1.00B22,2013-02-15 08:50:00,
2013-02-15 03:55:00,34.7,30.7,29.91,ESE,104,1.0,4.0,85,0.00,,,0.00,WeatherCatV1.00B22,2013-02-15 08:55:00,
2013-02-15 04:00:00,34.6,30.6,29.90,ESE,104,1.0,2.0,85,0.00,,,0.00,WeatherCatV1.00B22,2013-02-15 09:00:00,
2013-02-15 04:05:00,34.6,30.3,29.90,ESE,123,0.0,4.0,84,0.00,,,0.00,WeatherCatV1.00B22,2013-02-15 09:05:00,
2013-02-15 04:10:00,34.6,30.3,29.90,ESE,121,0.0,2.0,84,0.00,,,0.00,WeatherCatV1.00B22,2013-02-15 09:10:00,
2013-02-15 04:15:00,34.5,30.2,29.90,ESE,120,0.0,1.0,84,0.00,,,0.00,WeatherCatV1.00B22,2013-02-15 09:15:00,
2013-02-15 04:20:00,34.2,29.9,29.90,East,87,2.0,4.0,84,0.00,,,0.00,WeatherCatV1.00B22,2013-02-15 09:20:00,
2013-02-15 04:25:00,33.9,29.6,29.90,East,87,2.0,2.0,84,0.00,,,0.00,WeatherCatV1.00B22,2013-02-15 09:25:00,
2013-02-15 04:30:00,33.6,29.3,29.90,ESE,115,2.0,4.0,84,0.00,,,0.00,WeatherCatV1.00B22,2013-02-15 09:30:00,
2013-02-15 04:35:00,33.5,28.9,29.90,ESE,115,0.0,1.0,83,0.00,,,0.00,WeatherCatV1.00B22,2013-02-15 09:35:00,
2013-02-15 04:40:00,33.5,28.9,29.90,ESE,115,0.0,2.0,83,0.00,,,0.00,WeatherCatV1.00B22,2013-02-15 09:40:00,
2013-02-15 04:45:00,33.6,28.7,29.90,SSE,165,1.0,2.0,82,0.00,,,0.00,WeatherCatV1.00B22,2013-02-15 09:45:00,
2013-02-15 04:50:00,33.7,28.8,29.90,SSE,165,1.0,1.0,82,0.00,,,0.00,WeatherCatV1.00B22,2013-02-15 09:50:00,
2013-02-15 04:55:00,34.0,29.1,29.90,NNW,335,3.0,4.0,82,0.00,,,0.00,WeatherCatV1.00B22,2013-02-15 09:55:00,
2013-02-15 05:00:00,34.1,28.9,29.91,NNW,334,3.0,3.0,81,0.00,,,0.00,WeatherCatV1.00B22,2013-02-15 10:00:00,
2013-02-15 05:05:00,34.3,29.1,29.91,NNW,334,0.0,0.0,81,0.00,,,0.00,WeatherCatV1.00B22,2013-02-15 10:05:00,
2013-02-15 05:10:00,34.3,29.1,29.91,NNW,334,0.0,1.0,81,0.00,,,0.00,WeatherCatV1.00B22,2013-02-15 10:10:00,
2013-02-15 05:15:00,34.4,28.9,29.91,North,5,1.0,2.0,80,0.00,,,0.00,WeatherCatV1.00B22,2013-02-15 10:15:00,
2013-02-15 05:20:00,34.9,29.1,29.91,North,5,3.0,4.0,79,0.00,,,0.00,WeatherCatV1.00B22,2013-02-15 10:20:00,
2013-02-15 05:25:00,35.0,29.2,29.91,NNW,341,0.0,3.0,79,0.00,,,0.00,WeatherCatV1.00B22,2013-02-15 10:25:00,
2013-02-15 05:30:00,35.2,29.0,29.91,NNW,336,1.0,2.0,78,0.00,,,0.00,WeatherCatV1.00B22,2013-02-15 10:30:00,
2013-02-15 05:35:00,35.3,29.1,29.91,NNW,336,0.0,2.0,78,0.00,,,0.00,WeatherCatV1.00B22,2013-02-15 10:35:00,
2013-02-15 05:40:00,35.3,28.8,29.91,SE,126,2.0,2.0,77,0.00,,,0.00,WeatherCatV1.00B22,2013-02-15 10:40:00,
2013-02-15 05:45:00,35.6,28.8,29.91,SE,126,0.0,1.0,76,0.00,,,0.00,WeatherCatV1.00B22,2013-02-15 10:45:00,
2013-02-15 05:50:00,35.9,28.8,29.91,SE,132,5.0,7.0,75,0.00,,,0.00,WeatherCatV1.00B22,2013-02-15 10:50:00,
2013-02-15 05:55:00,36.4,28.9,29.91,SE,139,2.0,7.0,74,0.00,,,0.00,WeatherCatV1.00B22,2013-02-15 10:55:00,
2013-02-15 06:00:00,36.8,29.0,29.91,SSE,147,5.0,6.0,73,0.00,,,0.00,WeatherCatV1.00B22,2013-02-15 11:00:00,
2013-02-15 06:05:00,37.0,28.8,29.91,SSW,193,10.0,10.0,72,0.00,,,0.00,WeatherCatV1.00B22,2013-02-15 11:05:00,
2013-02-15 06:10:00,37.1,28.6,29.90,SE,145,4.0,12.0,71,0.00,,,0.00,WeatherCatV1.00B22,2013-02-15 11:10:00,
2013-02-15 06:15:00,37.2,28.7,29.91,SSE,165,4.0,10.0,71,0.00,,,0.00,WeatherCatV1.00B22,2013-02-15 11:15:00,
2013-02-15 06:20:00,37.3,28.4,29.90,South,173,4.0,9.0,70,0.00,,,0.00,WeatherCatV1.00B22,2013-02-15 11:20:00,
2013-02-15 06:25:00,37.2,28.3,29.90,SE,146,5.0,6.0,70,0.00,,,0.00,WeatherCatV1.00B22,2013-02-15 11:25:00,
2013-02-15 06:30:00,37.2,28.3,29.90,SE,132,7.0,9.0,70,0.00,,,0.00,WeatherCatV1.00B22,2013-02-15 11:30:00,
2013-02-15 06:35:00,37.1,28.2,29.90,South,188,10.0,10.0,70,0.00,,,0.00,WeatherCatV1.00B22,2013-02-15 11:35:00,
2013-02-15 06:40:00,37.1,28.2,29.90,SSE,155,4.0,8.0,70,0.00,,,0.00,WeatherCatV1.00B22,2013-02-15 11:40:00,
2013-02-15 06:45:00,37.1,28.2,29.90,SSW,199,4.0,10.0,70,0.00,,,0.00,WeatherCatV1.00B22,2013-02-15 11:45:00,
2013-02-15 06:50:00,37.1,28.2,29.90,SSE,147,4.0,7.0,70,0.00,,,0.00,WeatherCatV1.00B22,2013-02-15 11:50:00,
2013-02-15 06:55:00,37.0,28.1,29.90,SSE,150,6.0,11.0,70,0.00,,,0.00,WeatherCatV1.00B22,2013-02-15 11:55:00,
2013-02-15 07:00:00,37.0,28.1,29.90,SSW,198,5.0,5.0,70,0.00,,,0.00,WeatherCatV1.00B22,2013-02-15 12:00:00,
2013-02-15 07:05:00,36.9,28.0,29.91,SSE,159,5.0,5.0,70,0.00,,,0.00,WeatherCatV1.00B22,2013-02-15 12:05:00,
2013-02-15 07:10:00,36.9,28.0,29.91,SSE,167,4.0,7.0,70,0.00,,,0.00,WeatherCatV1.00B22,2013-02-15 12:10:00,
2013-02-15 07:15:00,36.9,28.0,29.91,SE,138,8.0,10.0,70,0.00,,,0.00,WeatherCatV1.00B22,2013-02-15 12:15:00,
2013-02-15 07:20:00,37.0,27.8,29.91,SE,143,4.0,9.0,69,0.00,,,0.00,WeatherCatV1.00B22,2013-02-15 12:20:00,
2013-02-15 07:25:00,37.1,28.2,29.91,SSE,147,5.0,10.0,70,0.00,,,0.00,WeatherCatV1.00B22,2013-02-15 12:25:00,
2013-02-15 07:30:00,37.1,27.9,29.91,South,169,1.0,5.0,69,0.00,,,0.00,WeatherCatV1.00B22,2013-02-15 12:30:00,
2013-02-15 07:35:00,37.0,28.1,29.91,SSE,148,6.0,8.0,70,0.00,,,0.00,WeatherCatV1.00B22,2013-02-15 12:35:00,
2013-02-15 07:40:00,37.0,28.1,29.92,SE,142,4.0,8.0,70,0.00,,,0.00,WeatherCatV1.00B22,2013-02-15 12:40:00,
2013-02-15 07:45:00,36.9,28.0,29.92,SSE,152,2.0,5.0,70,0.00,,,0.00,WeatherCatV1.00B22,2013-02-15 12:45:00,
2013-02-15 07:50:00,37.0,28.1,29.92,SSE,157,4.0,10.0,70,0.00,,,0.00,WeatherCatV1.00B22,2013-02-15 12:50:00,
2013-02-15 07:55:00,37.3,28.1,29.92,SSW,195,2.0,5.0,69,0.00,,,0.00,WeatherCatV1.00B22,2013-02-15 12:55:00,
2013-02-15 08:00:00,37.5,28.3,29.92,ESE,123,5.0,6.0,69,0.00,,,0.00,WeatherCatV1.00B22,2013-02-15 13:00:00,
2013-02-15 08:05:00,37.8,28.6,29.92,SE,125,5.0,6.0,69,0.00,,,0.00,WeatherCatV1.00B22,2013-02-15 13:05:00,
2013-02-15 08:10:00,38.0,28.7,29.92,SSE,168,0.0,4.0,69,0.00,,,0.00,WeatherCatV1.00B22,2013-02-15 13:10:00,
2013-02-15 08:15:00,38.4,28.8,29.92,South,188,0.0,3.0,68,0.00,,,0.00,WeatherCatV1.00B22,2013-02-15 13:15:00,
2013-02-15 08:20:00,38.7,28.7,29.93,SE,137,4.0,5.0,67,0.00,,,0.00,WeatherCatV1.00B22,2013-02-15 13:20:00,
2013-02-15 08:25:00,39.0,28.6,29.93,SSE,165,6.0,6.0,66,0.00,,,0.00,WeatherCatV1.00B22,2013-02-15 13:25:00,
2013-02-15 08:30:00,39.3,28.5,29.93,South,169,4.0,8.0,65,0.00,,,0.00,WeatherCatV1.00B22,2013-02-15 13:30:00,
2013-02-15 08:35:00,39.5,28.7,29.93,SSW,202,5.0,7.0,65,0.00,,,0.00,WeatherCatV1.00B22,2013-02-15 13:35:00,
2013-02-15 08:40:00,39.6,28.4,29.93,SSE,155,2.0,7.0,64,0.00,,,0.00,WeatherCatV1.00B22,2013-02-15 13:40:00,
2013-02-15 08:45:00,39.6,28.4,29.93,South,190,2.0,6.0,64,0.00,,,0.00,WeatherCatV1.00B22,2013-02-15 13:45:00,
2013-02-15 08:50:00,39.7,28.5,29.93,South,184,4.0,8.0,64,0.00,,,0.00,WeatherCatV1.00B22,2013-02-15 13:50:00,
2013-02-15 08:55:00,39.9,28.3,29.93,South,177,5.0,8.0,63,0.00,,,0.00,WeatherCatV1.00B22,2013-02-15 13:55:00,
2013-02-15 09:00:00,40.1,28.9,29.93,SSE,150,4.0,7.0,64,0.00,,,0.00,WeatherCatV1.00B22,2013-02-15 14:00:00,
2013-02-15 09:05:00,40.3,28.7,29.93,South,184,3.0,8.0,63,0.00,,,0.00,WeatherCatV1.00B22,2013-02-15 14:05:00,
2013-02-15 09:10:00,40.4,28.8,29.93,South,175,4.0,7.0,63,0.00,,,0.00,WeatherCatV1.00B22,2013-02-15 14:10:00,
2013-02-15 09:15:00,40.6,28.6,29.93,SSE,147,5.0,8.0,62,0.00,,,0.00,WeatherCatV1.00B22,2013-02-15 14:15:00,
2013-02-15 09:20:00,40.9,28.9,29.93,SSE,153,2.0,5.0,62,0.00,,,0.00,WeatherCatV1.00B22,2013-02-15 14:20:00,
2013-02-15 09:25:00,41.2,29.2,29.94,South,188,4.0,5.0,62,0.00,,,0.00,WeatherCatV1.00B22,2013-02-15 14:25:00,
2013-02-15 09:30:00,41.3,28.9,29.94,SSE,166,8.0,8.0,61,0.00,,,0.00,WeatherCatV1.00B22,2013-02-15 14:30:00,
2013-02-15 09:35:00,41.5,29.1,29.94,South,179,5.0,5.0,61,0.00,,,0.00,WeatherCatV1.00B22,2013-02-15 14:35:00,
2013-02-15 09:40:00,41.8,28.9,29.94,SE,142,2.0,6.0,60,0.00,,,0.00,WeatherCatV1.00B22,2013-02-15 14:40:00,
2013-02-15 09:45:00,42.2,28.9,29.94,SSE,147,2.0,7.0,59,0.00,,,0.00,WeatherCatV1.00B22,2013-02-15 14:45:00,
2013-02-15 09:50:00,42.5,29.6,29.94,South,181,0.0,4.0,60,0.00,,,0.00,WeatherCatV1.00B22,2013-02-15 14:50:00,
2013-02-15 09:55:00,42.7,29.4,29.94,East,96,1.0,2.0,59,0.00,,,0.00,WeatherCatV1.00B22,2013-02-15 14:55:00,
2013-02-15 10:00:00,42.9,29.6,29.94,SSE,162,0.0,4.0,59,0.00,,,0.00,WeatherCatV1.00B22,2013-02-15 15:00:00,
2013-02-15 10:05:00,43.4,29.6,29.94,SSE,162,1.0,1.0,58,0.00,,,0.00,WeatherCatV1.00B22,2013-02-15 15:05:00,
2013-02-15 10:10:00,43.8,29.6,29.94,South,186,3.0,6.0,57,0.00,,,0.00,WeatherCatV1.00B22,2013-02-15 15:10:00,
2013-02-15 10:15:00,43.8,29.1,29.94,SSE,159,7.0,8.0,56,0.00,,,0.00,WeatherCatV1.00B22,2013-02-15 15:15:00,
2013-02-15 10:20:00,44.0,29.8,29.94,SSW,205,2.0,5.0,57,0.00,,,0.00,WeatherCatV1.00B22,2013-02-15 15:20:00,
2013-02-15 10:25:00,43.9,29.2,29.94,WNW,297,1.0,8.0,56,0.00,,,0.00,WeatherCatV1.00B22,2013-02-15 15:25:00,
2013-02-15 10:30:00,44.0,29.8,29.94,WSW,248,1.0,2.0,57,0.00,,,0.00,WeatherCatV1.00B22,2013-02-15 15:30:00,
2013-02-15 10:35:00,44.3,29.2,29.93,WNW,298,4.0,11.0,55,0.00,,,0.00,WeatherCatV1.00B22,2013-02-15 15:35:00,
2013-02-15 10:40:00,44.5,29.4,29.93,NNW,329,4.0,4.0,55,0.00,,,0.00,WeatherCatV1.00B22,2013-02-15 15:40:00,
2013-02-15 10:45:00,44.9,29.7,29.93,SSW,201,6.0,8.0,55,0.00,,,0.00,WeatherCatV1.00B22,2013-02-15 15:45:00,
2013-02-15 10:50:00,45.5,29.4,29.93,SW,219,5.0,6.0,53,0.00,,,0.00,WeatherCatV1.00B22,2013-02-15 15:50:00,
2013-02-15 10:55:00,45.6,29.9,29.93,NNE,13,2.0,4.0,54,0.00,,,0.00,WeatherCatV1.00B22,2013-02-15 15:55:00,
2013-02-15 11:00:00,45.5,29.4,29.93,NW,307,6.0,6.0,53,0.00,,,0.00,WeatherCatV1.00B22,2013-02-15 16:00:00,
2013-02-15 11:05:00,45.3,29.6,29.93,North,11,0.0,3.0,54,0.00,,,0.00,WeatherCatV1.00B22,2013-02-15 16:05:00,
2013-02-15 11:10:00,45.6,29.9,29.93,NNE,16,1.0,3.0,54,0.00,,,0.00,WeatherCatV1.00B22,2013-02-15 16:10:00,
2013-02-15 11:15:00,45.8,30.1,29.93,East,84,0.0,6.0,54,0.00,,,0.00,WeatherCatV1.00B22,2013-02-15 16:15:00,
2013-02-15 11:20:00,46.0,30.3,29.92,NE,40,1.0,2.0,54,0.00,,,0.00,WeatherCatV1.00B22,2013-02-15 16:20:00,
2013-02-15 11:25:00,46.5,30.3,29.92,WNW,300,2.0,4.0,53,0.00,,,0.00,WeatherCatV1.00B22,2013-02-15 16:25:00,
2013-02-15 11:30:00,46.9,30.2,29.92,WSW,257,0.0,5.0,52,0.00,,,0.00,WeatherCatV1.00B22,2013-02-15 16:30:00,
2013-02-15 11:35:00,46.8,29.6,29.92,SSE,158,2.0,3.0,51,0.00,,,0.00,WeatherCatV1.00B22,2013-02-15 16:35:00,
2013-02-15 11:40:00,46.7,29.5,29.92,North,5,3.0,4.0,51,0.00,,,0.00,WeatherCatV1.00B22,2013-02-15 16:40:00,
2013-02-15 11:45:00,46.4,29.7,29.92,NW,321,1.0,2.0,52,0.00,,,0.00,WeatherCatV1.00B22,2013-02-15 16:45:00,
2013-02-15 11:50:00,46.1,29.9,29.92,North,9,1.0,3.0,53,0.00,,,0.00,WeatherCatV1.00B22,2013-02-15 16:50:00,
2013-02-15 11:55:00,45.8,30.1,29.92,NNE,19,0.0,2.0,54,0.00,,,0.00,WeatherCatV1.00B22,2013-02-15 16:55:00,
2013-02-15 12:00:00,45.4,29.7,29.92,WNW,302,1.0,2.0,54,0.00,,,0.00,WeatherCatV1.00B22,2013-02-15 17:00:00,
2013-02-15 12:05:00,45.2,29.6,29.92,NW,311,0.0,5.0,54,0.00,,,0.00,WeatherCatV1.00B22,2013-02-15 17:05:00,
2013-02-15 12:10:00,45.1,29.5,29.92,WNW,298,1.0,2.0,54,0.00,,,0.00,WeatherCatV1.00B22,2013-02-15 17:10:00,
2013-02-15 12:15:00,45.1,29.5,29.92,WNW,300,0.0,5.0,54,0.00,,,0.00,WeatherCatV1.00B22,2013-02-15 17:15:00,
2013-02-15 12:20:00,45.1,29.5,29.92,NNE,24,5.0,5.0,54,0.00,,,0.00,WeatherCatV1.00B22,2013-02-15 17:20:00,
2013-02-15 12:25:00,45.1,29.0,29.91,NE,35,0.0,3.0,53,0.00,,,0.00,WeatherCatV1.00B22,2013-02-15 17:25:00,
2013-02-15 12:30:00,45.4,29.7,29.91,NNW,327,3.0,4.0,54,0.00,,,0.00,WeatherCatV1.00B22,2013-02-15 17:30:00,
2013-02-15 12:35:00,45.4,29.3,29.91,SW,232,0.0,5.0,53,0.00,,,0.00,WeatherCatV1.00B22,2013-02-15 17:35:00,
2013-02-15 12:40:00,45.3,29.2,29.91,ENE,63,0.0,3.0,53,0.00,,,0.00,WeatherCatV1.00B22,2013-02-15 17:40:00,
2013-02-15 12:45:00,45.1,29.5,29.91,WNW,297,3.0,4.0,54,0.00,,,0.00,WeatherCatV1.00B22,2013-02-15 17:45:00,
2013-02-15 12:50:00,44.8,28.7,29.91,NNW,346,1.0,4.0,53,0.00,,,0.00,WeatherCatV1.00B22,2013-02-15 17:50:00,
2013-02-15 12:55:00,44.9,29.3,29.91,SSW,213,8.0,9.0,54,0.00,,,0.00,WeatherCatV1.00B22,2013-02-15 17:55:00,
2013-02-15 13:00:00,45.3,29.6,29.90,NNE,29,3.0,3.0,54,0.00,,,0.00,WeatherCatV1.00B22,2013-02-15 18:00:00,
2013-02-15 13:05:00,45.5,29.4,29.90,NNE,30,0.0,1.0,53,0.00,,,0.00,WeatherCatV1.00B22,2013-02-15 18:05:00,
2013-02-15 13:10:00,45.7,29.1,29.90,North,5,2.0,2.0,52,0.00,,,0.00,WeatherCatV1.00B22,2013-02-15 18:10:00,
2013-02-15 13:15:00,45.7,29.6,29.90,SSE,166,4.0,4.0,53,0.00,,,0.00,WeatherCatV1.00B22,2013-02-15 18:15:00,
2013-02-15 13:20:00,45.7,29.1,29.90,West,276,0.0,3.0,52,0.00,,,0.00,WeatherCatV1.00B22,2013-02-15 18:20:00,
2013-02-15 13:25:00,45.9,29.7,29.90,SE,134,6.0,6.0,53,0.00,,,0.00,WeatherCatV1.00B22,2013-02-15 18:25:00,
2013-02-15 13:30:00,46.0,28.9,29.90,NNE,24,3.0,5.0,51,0.00,,,0.00,WeatherCatV1.00B22,2013-02-15 18:30:00,
2013-02-15 13:35:00,46.0,29.4,29.90,North,350,2.0,2.0,52,0.00,,,0.00,WeatherCatV1.00B22,2013-02-15 18:35:00,
2013-02-15 13:40:00,45.8,28.7,29.90,North,351,0.0,4.0,51,0.00,,,0.00,WeatherCatV1.00B22,2013-02-15 18:40:00,
2013-02-15 13:45:00,45.6,29.5,29.90,West,262,3.0,5.0,53,0.00,,,0.00,WeatherCatV1.00B22,2013-02-15 18:45:00,
2013-02-15 13:50:00,45.2,29.1,29.90,West,281,1.0,5.0,53,0.00,,,0.00,WeatherCatV1.00B22,2013-02-15 18:50:00,
2013-02-15 13:55:00,44.7,30.0,29.90,East,90,1.0,2.0,56,0.00,,,0.00,WeatherCatV1.00B22,2013-02-15 18:55:00,
2013-02-15 14:00:00,44.4,29.7,29.90,North,5,0.0,2.0,56,0.00,,,0.00,WeatherCatV1.00B22,2013-02-15 19:00:00,
2013-02-15 14:05:00,44.3,29.6,29.90,North,5,0.0,2.0,56,0.00,,,0.00,WeatherCatV1.00B22,2013-02-15 19:05:00,
2013-02-15 14:10:00,44.3,29.2,29.90,NNE,21,1.0,5.0,55,0.00,,,0.00,WeatherCatV1.00B22,2013-02-15 19:10:00,
2013-02-15 14:15:00,44.3,29.2,29.90,NNW,333,1.0,2.0,55,0.00,,,0.00,WeatherCatV1.00B22,2013-02-15 19:15:00,
2013-02-15 14:20:00,44.3,29.2,29.90,NNW,331,1.0,4.0,55,0.00,,,0.00,WeatherCatV1.00B22,2013-02-15 19:20:00,
2013-02-15 14:25:00,44.1,29.0,29.90,North,355,2.0,4.0,55,0.00,,,0.00,WeatherCatV1.00B22,2013-02-15 19:25:00,
2013-02-15 14:30:00,44.0,29.3,29.91,North,355,0.0,2.0,56,0.00,,,0.00,WeatherCatV1.00B22,2013-02-15 19:30:00,
2013-02-15 14:35:00,43.9,28.8,29.91,NE,51,5.0,7.0,55,0.00,,,0.00,WeatherCatV1.00B22,2013-02-15 19:35:00,
2013-02-15 14:40:00,43.7,29.5,29.91,WNW,287,2.0,3.0,57,0.00,,,0.00,WeatherCatV1.00B22,2013-02-15 19:40:00,
2013-02-15 14:45:00,43.6,29.0,29.91,North,350,0.0,3.0,56,0.00,,,0.00,WeatherCatV1.00B22,2013-02-15 19:45:00,
2013-02-15 14:50:00,43.5,28.9,29.91,NW,313,0.0,3.0,56,0.00,,,0.00,WeatherCatV1.00B22,2013-02-15 19:50:00,
2013-02-15 14:55:00,43.3,29.1,29.91,NW,313,0.0,2.0,57,0.00,,,0.00,WeatherCatV1.00B22,2013-02-15 19:55:00,
2013-02-15 15:00:00,43.2,28.6,29.91,NW,316,2.0,2.0,56,0.00,,,0.00,WeatherCatV1.00B22,2013-02-15 20:00:00,
2013-02-15 15:05:00,43.0,28.4,29.91,WNW,289,0.0,2.0,56,0.00,,,0.00,WeatherCatV1.00B22,2013-02-15 20:05:00,
2013-02-15 15:10:00,42.8,28.6,29.91,WNW,289,1.0,2.0,57,0.00,,,0.00,WeatherCatV1.00B22,2013-02-15 20:10:00,
2013-02-15 15:15:00,42.8,28.6,29.91,WNW,289,0.0,1.0,57,0.00,,,0.00,WeatherCatV1.00B22,2013-02-15 20:15:00,
2013-02-15 15:20:00,42.7,29.0,29.91,WNW,289,0.0,0.0,58,0.00,,,0.00,WeatherCatV1.00B22,2013-02-15 20:20:00,
2013-02-15 15:25:00,42.7,28.5,29.91,WNW,291,0.0,1.0,57,0.00,,,0.00,WeatherCatV1.00B22,2013-02-15 20:25:00,
2013-02-15 15:30:00,42.7,28.5,29.91,WNW,291,2.0,2.0,57,0.00,,,0.00,WeatherCatV1.00B22,2013-02-15 20:30:00,
2013-02-15 15:35:00,42.8,28.6,29.91,WNW,291,0.0,1.0,57,0.00,,,0.00,WeatherCatV1.00B22,2013-02-15 20:35:00,
2013-02-15 15:40:00,42.8,28.2,29.91,NW,309,2.0,3.0,56,0.00,,,0.00,WeatherCatV1.00B22,2013-02-15 20:40:00,
2013-02-15 15:45:00,42.8,27.8,29.91,WNW,294,3.0,3.0,55,0.00,,,0.00,WeatherCatV1.00B22,2013-02-15 20:45:00,
2013-02-15 15:50:00,42.7,27.2,29.91,West,278,0.0,1.0,54,0.00,,,0.00,WeatherCatV1.00B22,2013-02-15 20:50:00,
2013-02-15 15:55:00,42.7,27.2,29.91,West,279,0.0,1.0,54,0.00,,,0.00,WeatherCatV1.00B22,2013-02-15 20:55:00,
2013-02-15 16:00:00,42.5,27.0,29.91,NW,306,0.0,2.0,54,0.00,,,0.00,WeatherCatV1.00B22,2013-02-15 21:00:00,
2013-02-15 16:05:00,42.4,26.9,29.91,NW,306,0.0,2.0,54,0.00,,,0.00,WeatherCatV1.00B22,2013-02-15 21:05:00,
2013-02-15 16:10:00,42.2,26.8,29.91,NNW,328,1.0,3.0,54,0.00,,,0.00,WeatherCatV1.00B22,2013-02-15 21:10:00,
2013-02-15 16:15:00,42.0,26.6,29.91,NW,324,0.0,1.0,54,0.00,,,0.00,WeatherCatV1.00B22,2013-02-15 21:15:00,
2013-02-15 16:20:00,41.9,26.9,29.91,NW,324,0.0,1.0,55,0.00,,,0.00,WeatherCatV1.00B22,2013-02-15 21:20:00,
2013-02-15 16:25:00,41.7,27.2,29.92,NW,324,0.0,3.0,56,0.00,,,0.00,WeatherCatV1.00B22,2013-02-15 21:25:00,
2013-02-15 16:30:00,41.5,26.6,29.92,NNW,327,0.0,3.0,55,0.00,,,0.00,WeatherCatV1.00B22,2013-02-15 21:30:00,
2013-02-15 16:35:00,41.3,26.8,29.92,NW,317,0.0,2.0,56,0.00,,,0.00,WeatherCatV1.00B22,2013-02-15 21:35:00,
2013-02-15 16:40:00,41.1,27.0,29.92,NNW,338,0.0,1.0,57,0.00,,,0.00,WeatherCatV1.00B22,2013-02-15 21:40:00,
2013-02-15 16:45:00,40.9,26.9,29.92,NNW,338,0.0,0.0,57,0.00,,,0.00,WeatherCatV1.00B22,2013-02-15 21:45:00,
2013-02-15 16:50:00,40.7,27.1,29.92,NNW,338,0.0,0.0,58,0.00,,,0.00,WeatherCatV1.00B22,2013-02-15 21:50:00,
2013-02-15 16:55:00,40.4,27.2,29.92,NNW,338,0.0,0.0,59,0.00,,,0.00,WeatherCatV1.00B22,2013-02-15 21:55:00,
2013-02-15 17:00:00,40.1,26.5,29.93,NNW,338,0.0,1.0,58,0.00,,,0.00,WeatherCatV1.00B22,2013-02-15 22:00:00,
2013-02-15 17:05:00,40.0,26.8,29.93,NNW,338,1.0,1.0,59,0.00,,,0.00,WeatherCatV1.00B22,2013-02-15 22:05:00,
2013-02-15 17:10:00,39.8,26.7,29.93,NNW,338,0.0,0.0,59,0.00,,,0.00,WeatherCatV1.00B22,2013-02-15 22:10:00,
2013-02-15 17:15:00,39.7,26.6,29.93,NNW,338,0.0,0.0,59,0.00,,,0.00,WeatherCatV1.00B22,2013-02-15 22:15:00,
2013-02-15 17:20:00,39.5,26.4,29.93,NNW,338,0.0,0.0,59,0.00,,,0.00,WeatherCatV1.00B22,2013-02-15 22:20:00,
2013-02-15 17:25:00,39.3,26.6,29.94,NNW,338,0.0,0.0,60,0.00,,,0.00,WeatherCatV1.00B22,2013-02-15 22:25:00,
2013-02-15 17:30:00,39.0,26.3,29.94,NNW,338,0.0,0.0,60,0.00,,,0.00,WeatherCatV1.00B22,2013-02-15 22:30:00,
2013-02-15 17:35:00,38.7,26.4,29.94,NNW,338,0.0,0.0,61,0.00,,,0.00,WeatherCatV1.00B22,2013-02-15 22:35:00,
2013-02-15 17:40:00,38.4,26.5,29.94,NNW,338,0.0,0.0,62,0.00,,,0.00,WeatherCatV1.00B22,2013-02-15 22:40:00,
2013-02-15 17:45:00,38.2,26.3,29.94,NNW,338,1.0,2.0,62,0.00,,,0.00,WeatherCatV1.00B22,2013-02-15 22:45:00,
2013-02-15 17:50:00,38.1,26.2,29.94,NNW,338,0.0,1.0,62,0.00,,,0.00,WeatherCatV1.00B22,2013-02-15 22:50:00,
2013-02-15 17:55:00,37.9,26.4,29.94,NNW,338,0.0,1.0,63,0.00,,,0.00,WeatherCatV1.00B22,2013-02-15 22:55:00,
2013-02-15 18:00:00,37.6,26.9,29.94,NNW,338,0.0,1.0,65,0.00,,,0.00,WeatherCatV1.00B22,2013-02-15 23:00:00,
2013-02-15 18:05:00,37.5,25.7,29.94,NNW,338,0.0,0.0,62,0.00,,,0.00,WeatherCatV1.00B22,2013-02-15 23:05:00,
2013-02-15 18:10:00,37.3,27.0,29.94,NNW,338,1.0,2.0,66,0.00,,,0.00,WeatherCatV1.00B22,2013-02-15 23:10:00,
2013-02-15 18:15:00,37.0,26.3,29.94,NNW,338,0.0,2.0,65,0.00,,,0.00,WeatherCatV1.00B22,2013-02-15 23:15:00,
2013-02-15 18:20:00,37.0,25.6,29.94,NNW,338,1.0,1.0,63,0.00,,,0.00,WeatherCatV1.00B22,2013-02-15 23:20:00,
2013-02-15 18:25:00,37.0,26.7,29.94,NNW,338,0.0,0.0,66,0.00,,,0.00,WeatherCatV1.00B22,2013-02-15 23:25:00,
2013-02-15 18:30:00,36.9,25.9,29.94,NNW,338,1.0,2.0,64,0.00,,,0.00,WeatherCatV1.00B22,2013-02-15 23:30:00,
2013-02-15 18:35:00,36.8,26.2,29.94,NNW,338,1.0,2.0,65,0.00,,,0.00,WeatherCatV1.00B22,2013-02-15 23:35:00,
2013-02-15 18:40:00,36.8,25.8,29.94,NNW,338,1.0,2.0,64,0.00,,,0.00,WeatherCatV1.00B22,2013-02-15 23:40:00,
2013-02-15 18:45:00,36.9,26.2,29.94,NNW,338,1.0,1.0,65,0.00,,,0.00,WeatherCatV1.00B22,2013-02-15 23:45:00,
2013-02-15 18:50:00,36.8,26.2,29.94,NNW,338,0.0,1.0,65,0.00,,,0.00,WeatherCatV1.00B22,2013-02-15 23:50:00,
2013-02-15 18:55:00,36.5,25.9,29.94,NNW,338,0.0,1.0,65,0.00,,,0.00,WeatherCatV1.00B22,2013-02-15 23:55:00,
2013-02-15 19:00:00,36.4,26.5,29.94,NNW,338,0.0,0.0,67,0.00,,,0.00,WeatherCatV1.00B22,2013-02-16 00:00:00,
2013-02-15 19:05:00,36.2,26.3,29.94,NNW,338,0.0,0.0,67,0.00,,,0.00,WeatherCatV1.00B22,2013-02-16 00:05:00,
2013-02-15 19:10:00,36.1,26.2,29.94,NNW,338,0.0,0.0,67,0.00,,,0.00,WeatherCatV1.00B22,2013-02-16 00:10:00,
2013-02-15 19:15:00,35.9,26.7,29.95,NNW,338,0.0,0.0,69,0.00,,,0.00,WeatherCatV1.00B22,2013-02-16 00:15:00,
2013-02-15 19:20:00,35.8,26.6,29.94,NNW,338,0.0,0.0,69,0.00,,,0.00,WeatherCatV1.00B22,2013-02-16 00:20:00,
2013-02-15 19:25:00,35.7,25.8,29.94,NNW,338,1.0,1.0,67,0.00,,,0.00,WeatherCatV1.00B22,2013-02-16 00:25:00,
2013-02-15 19:30:00,35.8,26.3,29.95,NNW,338,1.0,1.0,68,0.00,,,0.00,WeatherCatV1.00B22,2013-02-16 00:30:00,
2013-02-15 19:35:00,35.8,25.2,29.95,NNW,338,0.0,0.0,65,0.00,,,0.00,WeatherCatV1.00B22,2013-02-16 00:35:00,
2013-02-15 19:40:00,35.9,26.4,29.95,NNW,338,0.0,1.0,68,0.00,,,0.00,WeatherCatV1.00B22,2013-02-16 00:40:00,
2013-02-15 19:45:00,35.7,26.2,29.95,NNW,338,0.0,0.0,68,0.00,,,0.00,WeatherCatV1.00B22,2013-02-16 00:45:00,
2013-02-15 19:50:00,35.6,27.1,29.94,NNW,338,0.0,1.0,71,0.00,,,0.00,WeatherCatV1.00B22,2013-02-16 00:50:00,
2013-02-15 19:55:00,35.4,26.9,29.94,NNW,338,0.0,0.0,71,0.00,,,0.00,WeatherCatV1.00B22,2013-02-16 00:55:00,
2013-02-15 20:00:00,35.3,26.9,29.95,NNW,338,0.0,0.0,71,0.00,,,0.00,WeatherCatV1.00B22,2013-02-16 01:00:00,
2013-02-15 20:05:00,35.3,26.5,29.95,NNW,338,0.0,0.0,70,0.00,,,0.00,WeatherCatV1.00B22,2013-02-16 01:05:00,
2013-02-15 20:10:00,35.2,27.1,29.95,NNW,338,0.0,0.0,72,0.00,,,0.00,WeatherCatV1.00B22,2013-02-16 01:10:00,
2013-02-15 20:15:00,35.0,26.9,29.95,NNW,338,0.0,0.0,72,0.00,,,0.00,WeatherCatV1.00B22,2013-02-16 01:15:00,
2013-02-15 20:20:00,34.9,26.1,29.95,NNW,338,0.0,0.0,70,0.00,,,0.00,WeatherCatV1.00B22,2013-02-16 01:20:00,
2013-02-15 20:25:00,34.9,26.1,29.95,NNW,338,0.0,0.0,70,0.00,,,0.00,WeatherCatV1.00B22,2013-02-16 01:25:00,
2013-02-15 20:30:00,34.8,26.7,29.95,NNW,338,0.0,0.0,72,0.00,,,0.00,WeatherCatV1.00B22,2013-02-16 01:30:00,
2013-02-15 20:35:00,34.8,26.4,29.94,NNW,338,0.0,0.0,71,0.00,,,0.00,WeatherCatV1.00B22,2013-02-16 01:35:00,
2013-02-15 20:40:00,34.8,27.0,29.94,NNW,338,0.0,1.0,73,0.00,,,0.00,WeatherCatV1.00B22,2013-02-16 01:40:00,
2013-02-15 20:45:00,34.6,26.9,29.94,NNW,338,0.0,0.0,73,0.00,,,0.00,WeatherCatV1.00B22,2013-02-16 01:45:00,
2013-02-15 20:50:00,34.5,26.4,29.94,NNW,338,0.0,0.0,72,0.00,,,0.00,WeatherCatV1.00B22,2013-02-16 01:50:00,
2013-02-15 20:55:00,34.4,26.7,29.94,NNW,338,0.0,0.0,73,0.00,,,0.00,WeatherCatV1.00B22,2013-02-16 01:55:00,
2013-02-15 21:00:00,34.2,26.1,29.94,NNW,338,0.0,0.0,72,0.00,,,0.00,WeatherCatV1.00B22,2013-02-16 02:00:00,
2013-02-15 21:05:00,34.2,26.5,29.94,NNW,338,0.0,1.0,73,0.00,,,0.00,WeatherCatV1.00B22,2013-02-16 02:05:00,
2013-02-15 21:10:00,34.1,26.7,29.94,NNW,338,0.0,0.0,74,0.00,,,0.00,WeatherCatV1.00B22,2013-02-16 02:10:00,
2013-02-15 21:15:00,33.9,26.5,29.94,NNW,338,0.0,0.0,74,0.00,,,0.00,WeatherCatV1.00B22,2013-02-16 02:15:00,
2013-02-15 21:20:00,33.8,26.1,29.94,NNW,338,0.0,0.0,73,0.00,,,0.00,WeatherCatV1.00B22,2013-02-16 02:20:00,
2013-02-15 21:25:00,33.7,26.0,29.95,NNW,338,0.0,0.0,73,0.00,,,0.00,WeatherCatV1.00B22,2013-02-16 02:25:00,
2013-02-15 21:30:00,33.4,26.0,29.95,NNW,338,0.0,0.0,74,0.00,,,0.00,WeatherCatV1.00B22,2013-02-16 02:30:00,
2013-02-15 21:35:00,33.2,26.5,29.95,NNW,338,0.0,0.0,76,0.00,,,0.00,WeatherCatV1.00B22,2013-02-16 02:35:00,
2013-02-15 21:40:00,32.9,26.2,29.95,NNW,338,0.0,0.0,76,0.00,,,0.00,WeatherCatV1.00B22,2013-02-16 02:40:00,
2013-02-15 21:45:00,32.7,25.7,29.95,NNW,338,0.0,0.0,75,0.00,,,0.00,WeatherCatV1.00B22,2013-02-16 02:45:00,
2013-02-15 21:50:00,32.5,25.8,29.96,NNW,338,0.0,0.0,76,0.00,,,0.00,WeatherCatV1.00B22,2013-02-16 02:50:00,
2013-02-15 21:55:00,32.4,25.4,29.96,NNW,338,0.0,1.0,75,0.00,,,0.00,WeatherCatV1.00B22,2013-02-16 02:55:00,
2013-02-15 22:00:00,32.4,25.4,29.96,NNW,338,0.0,0.0,75,0.00,,,0.00,WeatherCatV1.00B22,2013-02-16 03:00:00,
2013-02-15 22:05:00,32.3,25.3,29.97,NNW,338,0.0,0.0,75,0.00,,,0.00,WeatherCatV1.00B22,2013-02-16 03:05:00,
2013-02-15 22:10:00,32.1,25.1,29.96,NNW,338,0.0,0.0,75,0.00,,,0.00,WeatherCatV1.00B22,2013-02-16 03:10:00,
2013-02-15 22:15:00,32.0,25.0,29.96,NNW,338,0.0,0.0,75,0.00,,,0.00,WeatherCatV1.00B22,2013-02-16 03:15:00,
2013-02-15 22:20:00,31.8,25.1,29.96,NNW,338,0.0,0.0,76,0.00,,,0.00,WeatherCatV1.00B22,2013-02-16 03:20:00,
2013-02-15 22:25:00,31.7,25.3,29.96,NNW,338,0.0,0.0,77,0.00,,,0.00,WeatherCatV1.00B22,2013-02-16 03:25:00,
2013-02-15 22:30:00,31.6,25.5,29.95,NNW,338,0.0,0.0,78,0.00,,,0.00,WeatherCatV1.00B22,2013-02-16 03:30:00,
2013-02-15 22:35:00,31.6,26.5,29.95,NNW,338,0.0,0.0,81,0.00,,,0.00,WeatherCatV1.00B22,2013-02-16 03:35:00,
2013-02-15 22:40:00,31.6,26.7,29.96,NNW,338,0.0,0.0,82,0.00,,,0.00,WeatherCatV1.00B22,2013-02-16 03:40:00,
2013-02-15 22:45:00,31.7,26.8,29.96,NNW,338,0.0,0.0,82,0.00,,,0.00,WeatherCatV1.00B22,2013-02-16 03:45:00,
2013-02-15 22:50:00,31.7,26.8,29.96,NNW,338,0.0,0.0,82,0.00,,,0.00,WeatherCatV1.00B22,2013-02-16 03:50:00,
2013-02-15 22:55:00,31.7,26.8,29.96,NNW,338,0.0,0.0,82,0.00,,,0.00,WeatherCatV1.00B22,2013-02-16 03:55:00,
2013-02-15 23:00:00,31.6,26.7,29.95,NNW,338,0.0,0.0,82,0.00,,,0.00,WeatherCatV1.00B22,2013-02-16 04:00:00,
2013-02-15 23:05:00,31.6,26.7,29.96,NNW,338,0.0,0.0,82,0.00,,,0.00,WeatherCatV1.00B22,2013-02-16 04:05:00,
2013-02-15 23:10:00,31.8,26.6,29.96,NNW,339,1.0,1.0,81,0.00,,,0.00,WeatherCatV1.00B22,2013-02-16 04:10:00,
2013-02-15 23:15:00,31.9,26.4,29.96,NNW,339,0.0,3.0,80,0.00,,,0.00,WeatherCatV1.00B22,2013-02-16 04:15:00,
2013-02-15 23:20:00,32.1,26.3,29.97,North,5,0.0,2.0,79,0.00,,,0.00,WeatherCatV1.00B22,2013-02-16 04:20:00,
2013-02-15 23:25:00,32.3,26.2,29.97,North,5,1.0,2.0,78,0.00,,,0.00,WeatherCatV1.00B22,2013-02-16 04:25:00,
2013-02-15 23:30:00,32.8,26.1,29.98,West,271,6.0,6.0,76,0.00,,,0.00,WeatherCatV1.00B22,2013-02-16 04:30:00,
2013-02-15 23:35:00,33.3,26.6,29.98,NW,317,1.0,2.0,76,0.00,,,0.00,WeatherCatV1.00B22,2013-02-16 04:35:00,
2013-02-15 23:40:00,33.4,26.7,29.98,SW,236,3.0,3.0,76,0.00,,,0.00,WeatherCatV1.00B22,2013-02-16 04:40:00,
2013-02-15 23:45:00,33.2,27.1,29.99,NNW,333,0.0,4.0,78,0.00,,,0.00,WeatherCatV1.00B22,2013-02-16 04:45:00,
2013-02-15 23:50:00,33.0,27.5,29.99,NNW,328,0.0,2.0,80,0.00,,,0.00,WeatherCatV1.00B22,2013-02-16 04:50:00,
2013-02-15 23:55:00,32.7,27.8,30.00,NNW,330,1.0,2.0,82,0.00,,,0.00,WeatherCatV1.00B22,2013-02-16 04:55:00,